Location: Bailleul
(50.3375°N, 2.8513°E)
Time: 04:34:13
(UTC+00:00)

Cosmos 1980 - Pass Details

Date: 01 November 2021
Orbit: 839 x 847 km, 71.0° (Epoch: 01 December)

Event Time Altitude Azimuth Distance (km) Brightness Sun altitude
Exits shadow 04:56:32 17° 315° (NW) 2,026 5.3 -16.8°
Maximum altitude 05:00:35 44° 251° (WSW) 1,156 4.0 -16.1°
Drops below altitude 10° 05:05:55 10° 180° (S) 2,462 6.2 -15.3°
Sets 05:08:26 0° 174° (S) 3,394 7.0 -14.9°
